Location: Tierra del Sol
(32.6128°N, 116.3319°W)
Time: 03:19:29
(UTC-07:00)

Vanguard 3 - Visible Passes

Search period start: 21 October 2017 00:00
Search period end: 31 October 2017 00:00
Orbit: 510 x 3263 km, 33.3° (Epoch: 20 October)

Date Brightness Start Highest point End Pass type
(mag) Time Alt. Az. Time Alt. Az. Time Alt. Az.
21 Oct 10.8 01:46:50 19° ESE 01:46:50 19° ESE 01:50:23 10° E visible
21 Oct 9.4 03:51:26 52° SSW 03:54:18 59° SSE 04:04:17 10° E visible
21 Oct 8.5 05:56:02 13° WSW 06:08:27 89° SSE 06:15:44 10° E visible
22 Oct 10.0 02:41:58 41° ESE 02:41:58 41° ESE 02:50:18 10° E visible
22 Oct 8.9 04:46:34 37° WSW 04:53:35 78° SSE 05:02:35 10° E visible
23 Oct 10.9 01:32:27 18° E 01:32:27 18° E 01:35:22 10° E visible
23 Oct 9.4 03:37:02 64° S 03:38:12 66° SSE 03:49:05 10° E visible
23 Oct 8.7 05:41:38 19° W 05:52:47 88° N 06:00:41 10° E visible
24 Oct 10.1 02:27:27 41° ESE 02:27:27 41° ESE 02:35:01 10° E visible
24 Oct 9.0 04:32:03 47° WSW 04:37:40 83° SSE 04:47:25 10° E visible
25 Oct 11.0 01:17:51 17° E 01:17:51 17° E 01:20:06 10° E visible
25 Oct 9.4 03:22:25 71° SSE 03:22:25 71° SSE 03:33:48 10° ENE visible
25 Oct 8.8 05:27:00 25° W 05:37:04 87° N 05:45:37 10° E visible
26 Oct 10.2 02:12:46 38° E 02:12:46 38° E 02:19:36 10° E visible
26 Oct 9.1 04:17:20 57° WSW 04:21:39 87° SSE 04:32:12 10° E visible
26 Oct 8.7 06:22:23 10° W 06:36:16 90° N 06:43:42 10° E visible
27 Oct 11.1 01:03:04 15° E 01:03:04 15° E 01:04:38 10° E visible
27 Oct 9.5 03:07:38 71° ESE 03:07:38 71° ESE 03:18:24 10° ENE visible
27 Oct 9.0 05:12:13 31° W 05:21:15 86° N 05:30:29 10° E visible
28 Oct 10.4 01:57:55 34° E 01:57:55 34° E 02:04:04 10° ENE visible
28 Oct 9.3 04:02:29 67° W 04:05:34 90° SSE 04:16:55 10° E visible
28 Oct 8.8 06:07:04 13° W 06:20:34 87° SSW 06:28:37 10° ESE visible
29 Oct 11.2 00:48:10 12° E 00:48:10 12° E 00:48:58 10° E visible
29 Oct 9.7 02:52:45 64° E 02:52:45 64° E 03:02:56 10° E visible
29 Oct 9.1 04:57:19 37° W 05:05:20 87° N 05:15:19 10° E visible
30 Oct 10.6 01:42:59 30° E 01:42:59 30° E 01:48:25 10° ENE visible
30 Oct 9.4 03:47:33 77° W 03:49:22 89° N 04:01:35 10° E visible
30 Oct 9.0 05:52:07 18° W 06:04:45 84° SSW 06:13:29 10° ESE visible
